Date,TemperatureHighF,TemperatureAvgF,TemperatureLowF,DewpointHighF,DewpointAvgF,DewpointLowF,HumidityHigh,HumidityAvg,HumidityLow,PressureMaxIn,PressureMinIn,WindSpeedMaxMPH,WindSpeedAvgMPH,GustSpeedMaxMPH,PrecipitationSumIn
2013-1-1,37,32,22,28,20,9,75,62,48,29.91,29.74,8,2,20,0.01
2013-1-2,32,22,12,15,10,5,79,62,48,30.09,29.89,7,1,14,0.00
2013-1-3,27,16,7,13,1,-4,80,54,29,30.14,30.00,5,1,10,0.00
2013-1-4,40,29,14,25,20,11,87,70,49,30.00,29.82,16,3,18,0.02
2013-1-5,44,32,21,25,22,19,92,67,42,30.25,29.86,8,2,15,0.04
2013-1-6,43,32,22,33,28,20,96,86,64,30.22,29.93,10,1,14,0.01
2013-1-7,41,30,21,31,24,20,97,83,48,30.40,29.96,5,1,11,0.00
2013-1-8,47,34,17,32,27,16,98,80,53,30.37,30.27,19,2,21,0.01
2013-1-9,45,35,22,40,31,21,97,86,68,30.39,30.01,8,2,14,0.00
2013-1-10,48,40,29,34,26,23,77,56,40,30.52,30.06,9,2,23,0.00
2013-1-11,40,33,23,37,29,21,96,85,72,30.51,30.20,2,0,5,0.19
2013-1-12,45,42,38,44,41,37,98,97,96,30.21,30.11,1,0,4,0.07
2013-1-13,51,46,42,50,46,42,99,98,95,30.15,30.01,7,2,13,0.01
2013-1-14,63,52,40,54,46,32,99,81,48,30.24,29.92,7,2,15,0.04
2013-1-15,42,37,34,37,32,29,97,83,64,30.29,30.20,2,0,4,0.09
2013-1-16,36,33,32,33,32,29,98,94,75,30.23,29.78,3,0,4,0.27
2013-1-17,44,36,31,33,29,21,97,77,53,30.06,29.84,7,1,16,0.37
2013-1-18,32,24,14,21,4,-4,79,46,29,30.46,30.02,8,2,16,0.00
2013-1-19,48,38,16,36,28,10,78,67,49,30.39,29.91,15,5,28,0.03
2013-1-20,55,44,29,38,29,10,78,57,35,29.92,29.56,16,5,29,0.00
2013-1-21,29,26,20,23,13,6,93,60,41,30.10,29.77,7,1,12,0.00
2013-1-22,25,21,13,23,9,-3,94,62,33,30.07,29.74,9,2,17,0.00
2013-1-23,16,11,7,3,-5,-9,67,49,37,30.15,30.06,13,2,18,0.00
2013-1-24,21,11,3,-3,-7,-8,62,45,28,30.21,30.05,7,2,19,0.00
2013-1-25,26,17,7,13,-4,-9,81,42,27,30.30,30.04,7,1,11,0.00
2013-1-26,26,18,8,14,5,-6,92,62,34,30.23,29.99,8,2,14,0.00
2013-1-27,31,20,12,7,3,1,66,50,30,30.46,30.23,6,2,12,0.00
2013-1-28,32,23,12,29,16,4,96,76,38,30.44,29.99,5,1,10,0.03
2013-1-29,34,32,29,33,31,28,98,96,93,30.18,29.98,2,0,3,0.11
2013-1-30,58,50,34,57,49,33,98,95,90,30.15,29.50,20,6,30,0.15
2013-1-31,62,50,32,59,38,14,97,68,35,29.60,29.02,28,9,40,0.78
2013-2-1,32,29,22,15,10,6,56,46,35,30.09,29.60,21,4,21,0.00
2013-2-2,30,25,16,17,10,4,67,54,42,30.25,30.04,11,2,16,0.00
2013-2-3,31,26,20,23,21,15,93,82,64,30.05,29.72,5,1,10,0.00
2013-2-4,31,25,19,22,12,6,91,62,37,29.95,29.71,14,2,20,0.00
2013-2-5,26,24,22,24,17,11,93,75,62,30.02,29.91,4,0,5,0.00
2013-2-6,41,31,26,28,20,6,95,68,40,30.28,29.90,9,2,13,0.03
2013-2-7,31,24,16,15,7,4,75,49,31,30.52,30.29,4,1,8,0.00
2013-2-8,32,30,22,32,27,15,98,89,70,30.46,29.43,11,3,18,0.00
2013-2-9,28,19,13,28,17,9,97,92,83,30.16,29.42,0,0,0,0.00
2013-2-10,39,20,3,25,13,0,94,77,35,30.39,30.17,0,0,0,0.06
2013-2-11,46,33,11,46,32,9,99,96,92,30.35,29.59,14,1,24,0.57
2013-2-12,46,39,29,42,30,25,99,72,50,29.89,29.60,12,3,19,0.00
2013-2-13,44,34,21,27,25,19,91,72,50,29.87,29.66,6,1,9,0.00
2013-2-14,46,35,27,29,26,20,96,72,37,30.00,29.69,7,1,10,0.08
2013-2-15,49,36,22,39,32,21,98,84,58,30.02,29.92,15,3,18,0.00
2013-2-16,36,33,31,33,31,24,98,93,76,29.94,29.64,6,1,11,0.04
2013-2-17,31,23,18,25,13,2,93,69,38,29.67,29.36,13,4,31,0.00
2013-2-18,32,23,15,5,2,0,55,41,25,30.16,29.68,16,4,23,0.00
2013-2-19,48,37,20,44,28,3,97,71,41,30.17,29.58,11,2,18,0.59
2013-2-20,43,34,26,42,22,10,96,64,41,29.79,29.54,12,3,27,0.00
2013-2-21,35,28,25,17,15,13,67,57,42,30.15,29.78,13,3,18,0.00
2013-2-22,37,31,26,26,22,17,83,70,61,30.35,30.16,8,2,12,0.00
2013-2-23,40,34,31,35,30,26,97,84,71,30.32,29.86,7,1,9,0.39
2013-2-24,40,36,31,39,35,30,97,96,93,29.86,29.64,7,2,16,0.71
2013-2-25,41,34,28,32,30,27,97,85,63,30.24,29.87,6,1,9,0.11
2013-2-26,47,37,26,33,29,25,97,75,45,30.32,30.12,7,1,10,0.00
2013-2-27,44,41,37,42,40,33,98,95,85,30.12,29.55,11,3,17,1.40
2013-2-28,47,39,35,40,37,34,98,91,76,29.64,29.50,4,0,5,0.00
2013-3-1,43,38,33,36,32,28,97,78,59,29.66,29.51,5,1,11,0.00
2013-3-2,43,38,33,30,28,26,79,68,56,29.67,29.61,5,1,8,0.00
2013-3-3,43,37,32,31,28,26,92,72,55,29.63,29.54,5,1,9,0.00
2013-3-4,41,35,29,29,24,22,90,67,52,29.71,29.57,8,2,18,0.00
2013-3-5,44,37,30,33,28,23,95,73,60,30.04,29.72,10,2,12,0.00
2013-3-6,40,36,29,36,34,28,97,90,74,30.06,29.97,17,5,27,0.14
2013-3-7,36,33,32,34,32,31,98,97,90,29.97,29.91,18,5,25,0.63
2013-3-8,39,33,31,34,31,28,98,93,68,30.09,29.88,7,1,19,0.27
2013-3-9,43,36,26,31,28,26,97,76,60,30.32,30.08,10,3,17,0.32
2013-3-10,46,36,26,33,31,25,98,84,61,30.39,30.32,6,1,9,0.00
2013-3-11,50,41,34,42,38,32,94,87,71,30.32,30.15,13,2,18,0.00
2013-3-12,57,50,40,54,49,39,98,94,83,30.16,29.73,16,3,24,0.86
2013-3-13,52,45,30,52,35,21,98,70,35,29.78,29.68,7,2,14,0.02
2013-3-14,36,31,24,26,17,6,91,59,41,29.84,29.71,12,3,18,0.00
2013-3-15,42,31,21,28,15,7,78,54,26,29.87,29.64,14,3,15,0.00
2013-3-16,41,35,28,28,18,9,78,54,26,29.85,29.68,5,1,11,0.00
2013-3-17,39,31,23,23,14,4,87,54,26,30.29,29.85,7,1,15,0.00
2013-3-18,39,29,19,26,12,1,81,50,32,30.45,30.23,7,1,9,0.00
2013-3-19,39,34,29,38,33,27,97,95,91,30.19,29.53,13,3,17,0.97
2013-3-20,41,33,26,28,22,18,92,65,41,29.81,29.67,10,3,22,0.00
2013-3-21,37,30,23,29,25,22,96,83,57,29.82,29.59,6,1,10,0.00
2013-3-22,41,34,27,29,22,17,96,63,39,29.75,29.59,11,2,14,0.09
2013-3-23,44,36,29,25,21,18,76,55,36,29.78,29.64,18,3,24,0.00
2013-3-24,49,38,29,28,24,20,85,59,36,29.82,29.71,6,1,16,0.00
2013-3-25,46,37,28,35,30,26,94,76,48,29.75,29.48,13,3,21,0.01
2013-3-26,49,40,32,33,28,23,95,67,39,29.77,29.48,7,2,16,0.04
2013-3-27,53,41,25,32,25,21,87,56,33,29.85,29.73,7,1,12,0.00
2013-3-28,48,42,37,36,33,28,94,73,48,30.01,29.84,5,1,11,0.01
2013-3-29,57,45,28,37,32,27,96,65,34,30.03,29.95,5,1,12,0.01
2013-3-30,58,47,33,34,28,16,90,53,20,30.09,29.99,6,1,12,0.00
2013-3-31,58,43,25,44,30,24,97,66,29,30.12,29.73,17,3,24,0.11
2013-4-1,57,48,35,47,40,14,97,76,42,29.80,29.53,19,4,25,0.19
2013-4-2,43,35,29,19,14,9,60,44,26,29.96,29.80,16,3,23,0.00
2013-4-3,46,37,30,17,14,12,54,40,25,30.16,29.94,18,4,24,0.00
2013-4-4,52,39,28,33,21,15,80,51,27,30.30,30.07,13,4,18,0.00
2013-4-5,61,47,38,39,31,21,81,59,24,30.07,29.62,10,3,19,0.00
2013-4-6,49,39,29,26,16,4,81,42,17,30.32,29.87,7,2,22,0.00
2013-4-7,52,42,24,43,32,19,94,70,29,30.32,30.03,19,6,29,0.00
2013-4-8,68,54,45,46,43,39,95,68,35,30.09,29.96,6,2,14,0.00
2013-4-9,75,56,47,56,46,39,95,72,32,30.08,29.83,10,2,17,0.00
2013-4-10,66,52,44,50,46,43,96,80,55,29.99,29.85,7,2,12,0.30
2013-4-11,54,48,45,46,42,33,97,81,62,30.12,29.80,12,2,12,0.02
2013-4-12,45,41,38,39,36,30,96,82,63,30.14,29.73,11,4,21,0.51
2013-4-13,56,44,38,41,38,35,96,81,46,29.93,29.70,10,2,16,0.02
2013-4-14,54,45,36,41,34,26,97,68,39,30.20,29.92,8,2,14,0.00
2013-4-15,57,44,29,37,33,27,92,67,38,30.40,30.20,10,2,15,0.00
2013-4-16,60,49,33,50,42,32,98,79,54,30.40,30.11,13,5,24,0.00
2013-4-17,69,58,42,53,44,31,93,65,25,30.32,30.07,11,2,18,0.00
2013-4-18,63,50,35,48,37,28,98,66,32,30.41,30.15,10,3,18,0.00
2013-4-19,69,61,53,63,58,48,98,92,80,30.15,29.71,17,6,25,0.12
2013-4-20,62,54,46,61,44,29,97,71,41,30.20,29.64,18,4,28,0.64
2013-4-21,54,43,32,30,24,21,83,50,28,30.66,30.22,10,2,13,0.00
2013-4-22,50,41,29,36,32,27,97,71,42,30.72,30.56,11,3,17,0.00
2013-4-23,43,42,39,42,40,33,97,92,77,30.56,30.07,10,3,16,0.12
2013-4-24,69,52,42,52,46,41,96,82,51,30.05,29.83,15,4,19,0.00
2013-4-25,66,54,41,51,40,26,96,66,24,30.24,29.87,11,3,18,0.09
2013-4-26,64,49,34,42,38,31,92,70,42,30.41,30.25,9,2,11,0.00
2013-4-27,64,50,34,44,36,31,98,66,34,30.41,30.30,9,1,13,0.00
2013-4-28,67,52,35,43,36,28,97,60,27,30.34,30.24,9,2,15,0.00
2013-4-29,66,53,40,48,37,23,98,62,22,30.28,30.21,11,2,14,0.00
2013-4-30,71,52,34,42,32,23,97,55,17,30.36,30.25,5,1,9,0.00
2013-5-1,67,52,33,44,38,32,96,63,31,30.46,30.36,7,1,13,0.00
2013-5-2,77,54,37,49,42,36,98,68,27,30.46,30.33,11,2,15,0.00
2013-5-3,58,48,40,46,42,38,94,78,62,30.48,30.36,13,2,16,0.00
2013-5-4,58,46,35,45,38,34,98,76,46,30.36,30.29,14,2,14,0.00
2013-5-5,60,47,31,44,39,30,98,77,51,30.31,30.23,7,1,13,0.00
2013-5-6,72,54,38,52,46,37,97,79,45,30.29,30.14,8,1,15,0.00
2013-5-7,77,61,45,61,53,45,98,78,54,30.18,30.10,10,2,15,0.00
2013-5-8,74,63,51,63,58,50,98,87,66,30.18,30.03,8,1,12,0.53
2013-5-9,71,62,56,63,60,56,98,93,73,30.04,29.86,6,0,9,0.25
2013-5-10,80,66,55,60,56,54,98,75,42,29.95,29.88,7,2,13,0.00
2013-5-11,68,62,57,62,59,55,98,91,75,29.93,29.70,16,3,20,0.19
2013-5-12,71,61,47,61,54,37,99,81,52,29.82,29.57,8,2,15,0.05
2013-5-13,60,50,36,39,33,29,92,56,34,30.01,29.82,8,2,13,0.00
2013-5-14,58,50,36,36,32,28,88,54,34,30.04,29.96,7,1,10,0.00
2013-5-15,63,50,32,54,41,30,95,73,37,30.05,29.68,11,3,23,0.01
2013-5-16,81,65,48,53,49,38,98,63,21,29.78,29.64,10,2,18,0.00
2013-5-17,70,58,44,49,44,40,93,65,37,30.21,29.79,7,1,12,0.00
2013-5-18,72,57,39,51,45,38,97,68,32,30.30,30.21,10,1,14,0.00
2013-5-19,70,58,44,55,50,43,98,78,48,30.34,30.22,10,2,15,0.10
2013-5-20,82,67,56,68,62,55,98,85,58,30.21,29.91,7,2,13,0.06
2013-5-21,86,65,52,70,61,52,99,88,58,29.98,29.83,8,2,13,0.24
2013-5-22,72,60,51,66,57,50,98,91,78,30.00,29.87,6,1,10,0.03
2013-5-23,74,66,60,68,64,60,98,94,81,29.91,29.83,14,5,22,0.06
2013-5-24,69,63,51,65,61,50,98,95,84,29.83,29.66,7,2,15,0.87
2013-5-25,53,49,41,52,48,40,98,95,91,29.77,29.68,6,1,10,0.45
2013-5-26,60,50,40,42,40,38,95,71,45,30.10,29.73,11,2,17,0.02
2013-5-27,73,58,41,48,41,35,94,59,27,30.16,30.06,6,2,18,0.00
2013-5-28,75,60,40,57,47,39,97,68,30,30.22,30.16,9,2,14,0.00
2013-5-29,75,64,58,67,61,56,97,90,74,30.20,29.99,6,2,11,0.95
2013-5-30,89,76,62,73,67,62,98,78,51,30.08,30.00,6,2,13,0.28
2013-5-31,91,78,62,71,66,61,98,70,45,30.08,29.95,12,2,15,0.00
2013-6-1,87,76,65,71,66,63,91,73,52,29.98,29.88,14,4,19,0.00
2013-6-2,82,71,65,70,65,62,92,82,62,29.91,29.79,19,5,20,0.00
2013-6-3,72,66,63,69,65,62,98,95,88,29.85,29.77,10,2,12,0.87
2013-6-4,72,63,50,63,48,45,96,61,41,30.07,29.80,5,1,17,0.00
2013-6-5,74,61,46,53,48,44,98,68,36,30.18,30.08,6,1,11,0.00
2013-6-6,75,62,49,58,52,48,97,74,44,30.19,30.09,8,1,12,0.00
2013-6-7,61,58,55,60,56,53,98,94,84,30.09,29.79,8,2,9,3.08
2013-6-8,78,64,55,66,60,55,98,86,65,29.99,29.56,6,2,13,1.52
2013-6-9,80,69,54,61,58,53,98,71,43,30.16,30.00,8,1,13,0.00
2013-6-10,72,62,54,64,59,53,98,90,63,30.18,29.98,3,0,7,1.07
2013-6-11,74,63,55,67,61,55,99,94,78,29.97,29.52,5,1,10,1.30
2013-6-12,72,64,56,58,56,54,98,77,55,29.80,29.55,9,2,17,0.00
2013-6-13,66,57,49,60,55,48,98,91,73,29.82,29.61,5,1,11,0.31
2013-6-14,71,59,53,58,54,49,97,83,59,29.75,29.58,10,2,19,1.52
2013-6-15,79,67,51,58,50,43,97,61,30,29.94,29.75,5,1,9,0.00
2013-6-16,77,66,53,63,57,51,97,75,44,29.94,29.73,11,2,15,0.00
2013-6-17,85,71,58,68,63,56,97,78,46,29.91,29.78,12,2,19,0.01
2013-6-18,83,65,57,66,60,57,98,87,52,29.93,29.84,8,1,16,0.19
2013-6-19,74,64,56,59,54,49,97,72,43,30.14,29.87,7,1,12,0.04
2013-6-20,78,66,49,57,53,48,98,68,36,30.26,30.14,11,2,13,0.00
2013-6-21,80,69,59,65,59,54,91,71,57,30.27,30.19,10,3,16,0.00
2013-6-22,82,70,62,65,59,55,93,69,52,30.23,30.14,10,3,15,0.00
2013-6-23,85,74,64,72,67,62,93,80,59,30.17,30.02,16,3,16,0.00
2013-6-24,93,80,70,75,71,67,97,77,47,30.04,29.86,6,2,18,0.00
2013-6-25,91,78,68,73,69,66,94,75,48,29.92,29.73,9,2,15,0.00
2013-6-26,88,77,69,73,70,68,95,81,52,29.84,29.72,6,1,12,0.04
2013-6-27,72,67,65,69,66,64,98,95,89,29.84,29.74,4,1,7,0.02
2013-6-28,77,71,65,73,70,65,99,96,87,29.73,29.52,11,3,19,1.10
2013-6-29,80,73,70,71,70,68,99,90,71,29.73,29.52,13,4,20,0.02
2013-6-30,79,73,70,74,70,69,97,91,77,29.94,29.73,11,3,15,0.34
2013-7-1,79,73,70,76,72,70,98,95,86,30.09,29.94,9,3,14,0.00
2013-7-2,81,75,72,75,73,71,98,91,80,30.18,30.08,7,4,15,0.00
2013-7-3,87,77,70,76,73,69,98,86,69,30.21,30.14,11,4,15,0.00
2013-7-4,90,81,72,78,75,71,98,83,62,30.20,30.10,10,3,13,0.00
2013-7-5,91,82,72,78,74,71,95,79,59,30.16,30.04,12,3,15,0.00
2013-7-6,92,81,73,77,74,72,94,79,54,30.08,29.96,9,2,11,0.00
2013-7-7,93,80,71,79,74,70,97,83,54,30.01,29.89,6,1,11,0.23
2013-7-8,90,78,68,76,72,67,99,83,53,30.04,29.91,8,2,10,0.01
2013-7-9,78,71,66,72,68,65,98,91,81,30.08,30.02,4,0,5,0.00
2013-7-10,83,75,69,76,72,68,98,91,74,30.05,29.80,10,3,18,0.68
2013-7-11,79,75,71,74,73,70,98,93,82,29.89,29.78,7,2,9,0.61
2013-7-12,73,70,66,70,66,63,99,87,73,30.17,29.89,9,2,13,0.00
2013-7-13,81,71,66,74,69,64,98,94,79,30.29,30.17,5,1,7,0.67
2013-7-14,89,79,72,77,74,71,99,86,59,30.29,30.18,8,1,9,0.23
2013-7-15,93,81,72,78,74,71,99,81,50,30.19,30.08,5,0,9,0.00
2013-7-16,93,81,68,75,71,68,98,74,48,30.15,30.09,3,1,7,0.00
2013-7-17,91,80,69,75,71,68,97,76,56,30.17,30.02,9,2,15,0.00
2013-7-18,93,83,74,79,74,71,90,76,57,30.01,29.94,7,1,10,0.00
2013-7-19,96,84,74,80,76,73,97,80,54,29.94,29.74,12,3,20,0.00
2013-7-20,91,82,71,79,76,71,97,84,62,29.79,29.64,11,3,17,0.23
2013-7-21,86,76,69,73,70,65,98,82,53,29.98,29.80,3,0,5,0.00
2013-7-22,86,75,67,72,69,66,98,82,54,29.99,29.86,6,1,7,0.00
2013-7-23,84,76,71,77,73,70,98,91,74,29.86,29.53,11,2,16,0.35
2013-7-24,86,78,72,73,70,63,97,78,59,29.89,29.57,6,1,11,0.00
2013-7-25,72,63,60,61,58,53,97,84,65,30.06,29.91,8,2,13,0.37
2013-7-26,70,65,62,67,64,61,98,96,89,30.01,29.91,6,1,9,0.61
2013-7-27,83,72,61,70,65,61,99,82,54,30.05,30.00,9,2,13,0.00
2013-7-28,84,73,67,73,70,66,98,90,67,30.00,29.95,3,0,7,0.03
2013-7-29,83,74,67,75,70,66,98,88,73,30.02,29.96,9,2,12,0.00
2013-7-30,83,72,60,69,62,58,97,72,46,30.08,30.02,3,0,8,0.00
2013-7-31,83,70,58,65,62,57,97,76,48,30.12,30.04,9,1,11,0.00
2013-8-1,81,69,60,67,62,59,98,81,54,30.05,29.89,10,1,13,0.06
2013-8-2,83,72,63,70,65,61,98,80,50,29.88,29.79,7,1,12,0.41
2013-8-3,77,71,67,67,66,64,95,82,69,29.87,29.79,8,2,12,0.00
2013-8-4,81,68,56,63,59,55,96,74,43,29.87,29.76,7,1,12,0.00
2013-8-5,76,64,54,58,52,43,95,69,32,30.03,29.88,7,1,11,0.00
2013-8-6,80,65,48,57,52,47,98,69,37,30.15,30.03,7,1,11,0.00
2013-8-7,80,66,54,65,56,50,98,73,39,30.18,30.13,7,1,13,0.00
2013-8-8,79,72,61,71,67,56,92,85,74,30.13,30.02,14,3,16,0.03
2013-8-9,75,74,72,74,72,71,98,94,89,30.04,29.77,13,4,19,1.81
2013-8-10,84,75,63,73,64,54,98,71,44,30.00,29.79,11,1,14,0.00
2013-8-11,80,67,52,61,56,51,98,70,43,30.07,30.00,4,1,10,0.00
2013-8-12,81,70,59,68,63,58,98,81,50,30.03,29.92,10,1,10,0.00
2013-8-13,74,67,61,69,65,61,98,93,78,29.93,29.68,4,0,6,0.02
2013-8-14,74,67,59,64,57,52,98,73,50,29.95,29.66,9,2,14,0.00
2013-8-15,77,64,51,59,54,48,97,71,41,30.11,29.96,6,1,10,0.00
2013-8-16,78,66,52,60,56,51,98,72,43,30.19,30.11,7,1,10,0.00
2013-8-17,80,68,53,63,59,52,98,77,48,30.27,30.19,4,0,7,0.00
2013-8-18,80,67,56,66,61,56,98,82,49,30.27,30.09,4,0,6,0.01
2013-8-19,82,69,57,65,61,56,97,77,48,30.09,29.95,6,1,10,0.01
2013-8-20,87,74,61,68,64,59,97,75,41,30.08,29.97,6,1,9,0.00
2013-8-21,88,74,60,69,65,59,99,77,44,30.14,30.03,6,1,9,0.00
2013-8-22,84,73,64,74,69,63,98,89,72,30.04,29.84,11,2,22,0.06
2013-8-23,78,70,58,70,62,57,98,78,52,30.09,29.81,8,1,12,0.00
2013-8-24,75,63,51,58,51,43,96,69,33,30.33,30.09,8,1,13,0.00
2013-8-25,82,65,47,60,54,47,99,71,36,30.35,30.20,8,1,12,0.00
2013-8-26,79,71,65,68,64,59,91,79,63,30.20,29.88,7,2,13,0.00
2013-8-27,80,71,63,72,68,62,98,91,70,29.88,29.82,6,1,9,0.61
2013-8-28,85,71,61,71,66,61,99,86,57,29.95,29.84,4,1,7,0.00
2013-8-29,66,64,60,65,63,58,98,95,91,30.05,29.94,8,1,11,0.01
2013-8-30,79,68,58,70,64,57,97,88,69,30.01,29.84,6,1,9,0.00
2013-8-31,79,73,69,73,71,68,97,91,81,29.84,29.80,10,3,12,0.00
2013-9-1,80,74,70,75,72,69,98,94,83,29.89,29.81,12,2,12,0.21
2013-9-2,80,74,71,75,73,70,99,96,84,29.86,29.71,8,1,13,1.45
2013-9-3,81,72,64,73,70,63,98,93,71,29.81,29.68,7,1,11,0.04
2013-9-4,80,68,58,62,60,57,96,76,48,29.92,29.80,6,1,13,0.00
2013-9-5,70,62,51,65,59,50,97,89,70,30.12,29.86,7,1,10,0.08
2013-9-6,68,55,43,51,46,42,99,77,42,30.23,30.09,3,0,7,0.00
2013-9-7,77,61,44,59,52,43,99,74,45,30.10,29.87,10,2,13,0.00
2013-9-8,77,66,50,65,56,42,94,71,43,30.08,29.74,7,2,12,0.00
2013-9-9,68,55,41,53,46,40,98,76,41,30.23,30.08,9,1,11,0.00
2013-9-10,74,65,51,69,62,50,97,89,79,30.17,30.05,14,3,16,0.00
2013-9-11,92,78,69,79,73,69,98,85,63,30.08,29.95,9,3,12,0.00
2013-9-12,81,74,70,74,71,69,97,89,76,29.97,29.69,10,4,19,0.19
2013-9-13,79,70,60,71,66,57,98,89,66,29.73,29.56,6,1,9,0.17
2013-9-14,70,62,52,58,55,51,96,80,61,30.05,29.74,6,1,8,0.00
2013-9-15,71,58,45,56,52,45,99,82,55,30.16,30.05,6,1,9,0.00
2013-9-16,68,57,50,58,53,42,97,87,68,30.21,30.01,3,0,7,0.03
2013-9-17,60,50,41,45,40,36,96,72,41,30.40,30.22,9,2,15,0.00
2013-9-18,73,54,36,52,44,36,99,74,36,30.32,30.14,6,1,9,0.00
2013-9-19,80,60,43,59,52,42,99,76,41,30.15,30.03,5,1,7,0.00
2013-9-20,80,61,46,59,53,45,99,78,38,30.08,29.99,7,1,8,0.00
2013-9-21,76,65,51,67,60,50,99,85,64,30.03,29.74,11,3,17,0.00
2013-9-22,73,66,52,68,59,48,96,79,55,29.81,29.62,11,2,21,0.56
2013-9-23,66,54,44,49,44,41,92,73,50,29.99,29.81,7,1,13,0.00
2013-9-24,69,53,43,50,44,40,93,73,43,29.99,29.80,9,1,9,0.00
2013-9-25,67,54,41,51,47,40,98,79,53,29.97,29.87,7,1,8,0.00
2013-9-26,66,57,50,51,50,47,94,80,58,30.10,29.96,6,1,9,0.00
2013-9-27,66,57,46,56,52,45,97,83,62,30.25,30.10,11,1,11,0.00
2013-9-28,72,55,40,58,50,40,99,83,54,30.31,30.24,8,1,9,0.00
2013-9-29,69,54,43,55,49,42,99,83,41,30.25,30.10,5,1,8,0.00
2013-9-30,69,57,44,57,52,43,98,84,56,30.10,29.96,5,1,8,0.00
2013-10-1,78,57,40,58,50,40,99,79,41,29.96,29.84,4,0,11,0.00
2013-10-2,81,65,48,63,57,48,99,80,53,29.95,29.82,8,1,15,0.00
2013-10-3,79,62,48,57,52,48,99,76,35,30.07,29.95,7,1,9,0.00
2013-10-4,65,55,46,59,54,45,98,94,70,30.08,30.02,2,0,5,0.52
2013-10-5,69,62,57,62,58,56,99,90,74,30.11,30.04,4,0,5,0.03
2013-10-6,61,59,57,59,57,55,97,94,89,30.19,30.09,5,1,8,0.04
2013-10-7,78,69,58,71,67,58,99,92,79,30.10,29.84,15,3,23,0.18
2013-10-8,68,58,45,58,48,44,96,73,43,30.34,29.90,7,1,10,0.00
2013-10-9,62,51,42,49,45,41,98,82,55,30.43,30.34,11,1,14,0.00
2013-10-10,64,55,44,56,52,44,98,89,74,30.34,30.14,10,1,12,0.00
2013-10-11,67,58,49,59,54,47,96,87,69,30.14,30.08,11,1,12,0.00
2013-10-12,64,56,49,58,53,48,98,90,79,30.35,30.12,11,2,19,0.00
2013-10-13,60,51,38,51,46,37,98,86,64,30.42,30.33,8,1,12,0.00
2013-10-14,66,47,31,51,42,30,99,84,45,30.40,30.25,3,0,6,0.00
2013-10-15,71,54,39,53,47,39,99,81,47,30.26,30.16,7,1,8,0.00
2013-10-16,63,54,42,58,52,41,99,93,83,30.16,29.90,3,0,6,0.00
2013-10-17,71,61,54,62,59,53,99,91,73,29.91,29.73,9,1,11,0.00
2013-10-18,69,61,43,63,53,41,96,76,47,29.91,29.62,9,2,17,0.01
2013-10-19,65,51,36,49,43,35,99,77,44,29.98,29.75,8,1,10,0.00
2013-10-20,64,53,36,54,42,33,98,70,33,30.02,29.69,8,1,14,0.00
2013-10-21,68,48,31,46,39,30,98,75,36,30.12,30.00,6,1,12,0.00
2013-10-22,68,52,37,56,46,36,99,82,54,30.01,29.70,12,2,14,0.00
2013-10-23,52,44,34,42,38,34,97,82,57,29.80,29.58,2,0,3,0.00
2013-10-24,54,44,33,37,31,24,92,63,34,29.89,29.63,10,1,14,0.00
2013-10-25,50,39,27,35,30,25,95,71,45,30.16,29.89,5,1,13,0.00
2013-10-26,55,42,25,39,32,24,98,72,38,30.16,29.88,15,3,23,0.00
2013-10-27,57,47,35,41,36,30,91,68,40,30.07,29.82,8,1,11,0.02
2013-10-28,61,44,27,37,32,26,97,67,39,30.33,30.07,11,1,19,0.00
2013-10-29,52,38,28,35,29,25,95,71,37,30.42,30.34,5,0,8,0.00
2013-10-30,54,41,28,46,38,27,96,91,72,30.36,30.19,3,0,3,0.01
2013-10-31,64,50,33,61,48,32,99,92,81,30.23,29.83,11,3,21,0.09
2013-11-1,69,64,60,65,60,55,95,87,75,29.81,29.50,25,7,35,0.12
2013-11-2,68,58,51,55,50,44,96,77,45,29.71,29.58,8,0,8,0.00
2013-11-3,51,42,32,46,36,19,94,79,54,30.39,29.72,5,0,10,0.00
2013-11-4,43,33,23,27,22,19,94,67,46,30.70,30.39,6,1,15,0.00
2013-11-5,53,36,23,34,28,21,96,77,37,30.70,30.52,6,0,8,0.00
2013-11-6,59,48,32,53,43,30,96,84,62,30.52,30.06,11,2,17,0.00
2013-11-7,65,55,41,61,53,36,97,92,82,30.05,29.66,12,2,16,0.52
2013-11-8,50,40,30,37,29,22,90,66,42,30.10,29.82,11,2,17,0.00
2013-11-9,45,37,28,32,26,23,85,67,43,30.21,30.05,4,1,16,0.00
2013-11-10,55,45,39,46,39,32,97,78,58,30.04,29.72,6,1,11,0.06
2013-11-11,53,46,39,41,31,27,78,57,37,30.10,29.87,11,3,16,0.00
2013-11-12,51,37,28,40,28,16,93,70,58,30.18,29.88,8,1,11,0.09
2013-11-13,38,30,25,18,16,12,71,56,38,30.27,30.18,6,1,10,0.00
2013-11-14,53,40,27,31,23,16,66,51,32,30.19,30.05,10,2,14,0.00
2013-11-15,59,45,29,43,31,20,93,61,31,30.21,30.13,11,2,14,0.00
2013-11-16,62,46,32,40,36,31,95,72,42,30.32,30.20,10,0,11,0.00
2013-11-17,62,48,31,60,46,30,99,92,70,30.31,29.85,7,1,13,0.10
2013-11-18,66,59,49,64,51,35,98,77,50,29.83,29.54,11,4,32,0.63
2013-11-19,49,41,31,34,24,18,62,52,40,30.27,29.66,7,2,15,0.00
2013-11-20,42,31,20,19,16,13,86,57,31,30.61,30.27,5,1,11,0.00
2013-11-21,49,33,18,32,24,17,93,72,40,30.63,30.39,4,0,8,0.00
2013-11-22,51,45,38,51,43,32,97,92,79,30.38,29.82,3,0,6,0.24
2013-11-23,49,42,30,47,28,16,96,60,30,29.89,29.78,13,2,16,0.00
2013-11-24,30,25,21,18,5,-5,63,44,24,30.20,29.79,13,4,29,0.00
2013-11-25,35,25,16,24,5,-5,69,44,20,30.37,30.20,7,2,14,0.00
2013-11-26,44,39,34,42,28,19,97,67,46,30.32,30.02,10,2,14,0.20
2013-11-27,62,53,38,62,52,34,98,96,86,30.00,29.20,17,4,29,2.91
2013-11-28,38,32,24,34,18,8,86,58,37,30.44,29.49,11,3,19,0.00
2013-11-29,37,28,20,18,14,7,74,58,40,30.73,30.44,5,1,9,0.00
2013-11-30,37,26,15,25,16,9,81,68,41,30.77,30.43,5,1,9,0.00
2013-12-1,48,40,30,44,38,25,98,91,80,30.43,29.99,3,0,6,0.41
2013-12-2,41,38,36,39,37,36,98,96,92,29.98,29.90,2,0,3,0.00
2013-12-3,50,38,31,39,34,30,97,87,59,29.94,29.82,6,1,7,0.00
2013-12-4,48,35,26,32,30,25,98,84,54,30.20,29.94,3,0,8,0.00
2013-12-5,56,44,29,55,43,28,98,94,85,30.20,29.92,8,1,21,0.01
2013-12-6,56,50,38,55,49,37,98,95,89,30.11,29.86,5,1,12,0.41
2013-12-7,41,34,26,36,30,23,97,85,62,30.45,30.06,6,1,11,0.20
2013-12-8,31,27,19,24,19,16,94,72,55,30.59,30.45,3,0,5,0.00
2013-12-9,41,35,28,40,34,20,98,95,66,30.47,29.87,4,1,11,0.30
2013-12-10,35,31,25,34,30,21,98,95,82,30.01,29.77,5,0,9,0.00
2013-12-11,31,26,21,22,20,19,92,78,64,30.24,30.02,10,2,14,0.00
2013-12-12,26,21,12,18,10,4,90,65,39,30.27,30.08,6,1,11,0.01
2013-12-13,32,23,10,17,12,7,86,64,46,30.36,30.01,10,2,20,0.00
2013-12-14,29,18,13,28,11,-3,96,73,48,30.58,30.11,6,2,13,0.00
2013-12-15,39,31,25,38,29,22,98,91,78,30.08,29.34,11,2,16,0.76
2013-12-16,30,24,11,22,13,6,92,66,41,30.21,29.75,9,2,16,0.00
2013-12-17,27,16,3,26,13,1,95,89,77,30.27,29.90,7,1,8,0.00
2013-12-18,36,27,18,23,20,16,91,77,52,30.10,29.82,6,1,14,0.06
2013-12-19,46,35,25,30,25,20,82,69,51,30.12,29.96,12,2,20,0.08
2013-12-20,53,41,28,43,35,26,94,81,64,30.12,29.93,10,2,16,0.00
2013-12-21,58,51,45,52,48,41,97,89,75,29.99,29.88,12,4,17,0.00
2013-12-22,62,54,41,60,52,40,96,94,81,29.99,29.78,13,4,24,0.00
2013-12-23,41,38,35,40,38,34,98,98,96,30.06,29.93,3,0,8,0.80
2013-12-24,39,34,28,38,25,17,98,72,48,30.19,30.02,6,1,10,0.00
2013-12-25,28,20,14,19,8,3,87,60,43,30.54,30.19,7,2,16,0.00
2013-12-26,38,29,16,37,26,12,96,89,79,30.50,30.06,4,0,8,0.10
2013-12-27,36,28,21,25,21,19,95,76,51,30.28,30.20,8,1,14,0.00
2013-12-28,50,36,25,32,26,22,90,71,43,30.23,30.00,9,2,18,0.00
2013-12-29,46,37,26,42,35,24,97,92,72,30.04,29.33,6,1,13,1.17
2013-12-30,41,34,21,38,26,13,97,77,51,30.14,29.48,7,1,13,0.00
2013-12-31,28,20,16,15,9,2,84,63,46,30.19,30.03,5,1,10,0.00
2014-1-1,30,22,14,16,10,6,79,61,43,30.38,30.20,6,1,15,0.00
2014-1-2,28,23,8,27,21,6,95,90,63,30.34,29.74,16,4,19,0.00